Location: Bosdarros
(43.2167°N, 0.3667°W)
Time: 15:04:41
(UTC+00:00)

Cosmos 1140 Rocket - Pass Details

Date: 22 April 2021
Orbit: 744 x 767 km, 74.1° (Epoch: 13 May)

Event Time Altitude Azimuth Distance (km) Brightness Sun altitude
Rises 20:11:18 0° 190° (S) 3,173 6.5 -13.8°
Reaches altitude 10° 20:13:39 10° 187° (S) 2,252 5.7 -14.1°
Maximum altitude 20:18:41 64° 107° (ESE) 823 3.4 -14.9°
Drops below altitude 10° 20:23:46 10° 26° (NNE) 2,268 6.0 -15.7°
Sets 20:26:09 0° 24° (NNE) 3,198 6.9 -16.0°
